Location: City of Moscow
(46.7306°N, 116.9989°W)
Time: 03:29:39
(UTC+00:00)

Cosmos 1626 Rocket - Pass Details

Date: 14 March 2026
Orbit: 596 x 624 km, 82.5° (Epoch: 13 April)

Event Time Altitude Azimuth Distance (km) Brightness Sun altitude
Rises 12:35:48 0° 351° (N) 2,901 7.1 -15.6°
Reaches altitude 10° 12:38:02 10° 352° (N) 1,986 6.2 -15.2°
Maximum altitude 12:42:27 86° 81° (E) 620 3.5 -14.5°
Drops below altitude 10° 12:46:47 10° 171° (S) 1,952 6.1 -13.7°
Sets 12:48:58 0° 171° (S) 2,846 6.9 -13.4°
